User: anonymous   Login
Location: Unspecified
(0.0000°N, 0.0000°E)
Time: 10:40:22
(UTC+00:00)
Language:

SR - Orbit

View from above orbital plane
View from above orbital plane
View from above satellite
View from above satellite

Ground track
Ground track

The orbit data is extracted from the following two-line orbital elements,

1 00046U 60007B   15214.19564793  .00000601  00000-0  14386-3 0  9992
2 00046 066.6897 177.7671 0209705 016.5238 344.2567 14.48578551881026
Epoch (UTC): 02 August 2015 04:41:43
Eccentricity: 0.0209705
inclination: 66.6897°
perigee height: 581 km
apogee height: 879 km
right ascension of ascending node: 177.7671°
argument of perigee: 16.5238°
revolutions per day: 14.48578551
mean anomaly at epoch: 344.2567°
orbit number at epoch: 88102

The dashed part of the orbit path shows where the satellite is in the earth's shadow,  

DLR